RESOURCESAT-2

Last updated on Mon Sep 21 2026 00:02:45 GMT+0000 (Coordinated Universal Time)

1 37387U 11015A 26263.52797243 .00000005 00000+0 22344-4 0 9997 2 37387 98.7554 330.2666 0010863 348.2723 11.8199 14.21610312799725
UTC large
Height (km)
Speed (km/s)
/
Latitude / Longitude
Inclination (degrees)
Orbital Period (minutes)
Azimuth
Elevation
Range (km)
Doppler Factor

Next 0 passes for location: London (51.5072 / 0.1276)

No passes found over London.
RESOURCESAT-2